Martinsburg, WV

2:04 PM EDT on March 27, 2017 (GMT -0400)
Eastern W Va Regional-Shepherd

Weather History for KMRB - February, 2012

Change the Weather History Date:

Thursday, February 23, 2012

  Actual Average Record
Temperature  
Mean Temperature 53 °F 35 °F  
Max Temperature 63 °F 45 °F 77 °F (2017)
Min Temperature 43 °F 26 °F -1 °F (1964)
Degree Days  
Heating Degree Days 12 30  
Month to date heating degree days 594 730  
Since 1 July heating degree days 3101 3813  
Cooling Degree Days 0 0  
Month to date cooling degree days 0 0  
Year to date cooling degree days 0 0  
Growing Degree Days 4 (Base 50)    
Moisture  
Dew Point 32 °F    
Average Humidity 45    
Maximum Humidity 65    
Minimum Humidity 25    
Precipitation  
Precipitation T in 0.09 in 1.16 in (1998)
Month to date precipitation 0.93 1.90  
Year to date precipitation 3.00 4.34  
Sea Level Pressure  
Sea Level Pressure 29.56 in    
Wind  
Wind Speed 10 mph (WSW)    
Max Wind Speed 23 mph    
Max Gust Speed 29 mph    
Visibility 10 miles    
Events Rain    
T = Trace of Precipitation, MM = Missing Value Source: NWS Daily Summary

Daily Weather History Graph

Daily Weather History Graph

Search for Another Location

Airport or City:

Trip Planner

Search our weather history database for the weather conditions in past years. The results will help you decide how hot, cold, wet, or windy it might be!

Date:

Astronomy

Feb. 23, 2012 Rise Set
Actual Time 6:54 AM EST 5:57 PM EST
Civil Twilight 6:26 AM EST 6:24 PM EST
Nautical Twilight 5:55 AM EST 6:55 PM EST
Astronomical Twilight 5:24 AM EST 7:26 PM EST
Moon 7:20 AM EST (2/23) 7:59 PM EST (2/23)
Length of Visible Light 11h 57m
Length of Day
11h 03m
Waxing Crescent, 3% of the Moon is Illuminated
Feb 23
Waxing Crescent
Feb 29
First Quarter
Mar 8
Full
Mar 14
Last Quarter
Mar 22
New

Hourly Weather History & Observations

Time (EST) Temp. Windchill Dew Point Humidity Pressure Visibility Wind Dir Wind Speed Gust Speed Precip Events Conditions
12:53 AM 51.1 °F - 37.9 °F 61% 29.47 in 10.0 mi SW 5.8 mph - N/A   Overcast
1:53 AM 50.0 °F - 37.0 °F 61% 29.46 in 10.0 mi SSW 6.9 mph - N/A   Clear
2:53 AM 48.0 °F - 36.0 °F 63% 29.46 in 10.0 mi SSW 4.6 mph - N/A   Clear
3:53 AM 46.9 °F - 36.0 °F 66% 29.44 in 10.0 mi South 5.8 mph - N/A   Clear
4:53 AM 46.0 °F 43.1 °F 36.0 °F 68% 29.48 in 10.0 mi SSW 5.8 mph - N/A   Partly Cloudy
5:53 AM 48.9 °F - 35.1 °F 59% 29.49 in 10.0 mi West 17.3 mph 24.2 mph N/A   Scattered Clouds
6:53 AM 50.0 °F - 35.1 °F 57% 29.51 in 10.0 mi West 18.4 mph 25.3 mph N/A   Partly Cloudy
7:53 AM 51.1 °F - 35.1 °F 54% 29.55 in 10.0 mi West 19.6 mph 24.2 mph N/A   Clear
8:53 AM 52.0 °F - 35.1 °F 53% 29.59 in 10.0 mi WSW 13.8 mph - N/A   Clear
9:53 AM 55.0 °F - 34.0 °F 45% 29.60 in 10.0 mi West 11.5 mph - N/A   Clear
10:53 AM 57.2 °F - 32.0 °F 38% 29.60 in 10.0 mi NW 17.3 mph 26.5 mph N/A   Partly Cloudy
11:53 AM 57.9 °F - 33.1 °F 39% 29.61 in 10.0 mi North 9.2 mph - N/A   Partly Cloudy
12:53 PM 61.0 °F - 28.9 °F 30% 29.59 in 10.0 mi WSW 20.7 mph 27.6 mph N/A   Scattered Clouds
1:06 PM 62.6 °F - 28.4 °F 27% 29.59 in 10.0 mi West 17.3 mph 26.5 mph N/A   Partly Cloudy
1:53 PM 62.1 °F - 27.0 °F 26% 29.59 in 10.0 mi West 18.4 mph 25.3 mph N/A   Clear
2:53 PM 62.1 °F - 26.1 °F 25% 29.61 in 10.0 mi West 19.6 mph 24.2 mph N/A   Clear
3:53 PM 61.0 °F - 26.1 °F 26% 29.64 in 10.0 mi WNW 10.4 mph 19.6 mph N/A   Scattered Clouds
4:53 PM 60.1 °F - 26.1 °F 27% 29.61 in 10.0 mi NW 5.8 mph - N/A   Mostly Cloudy
5:53 PM 59.0 °F - 26.1 °F 28% 29.61 in 10.0 mi Calm Calm - N/A   Mostly Cloudy
6:53 PM 54.0 °F - 28.0 °F 37% 29.64 in 10.0 mi Calm Calm - N/A   Mostly Cloudy
7:53 PM 54.0 °F - 28.0 °F 37% 29.64 in 10.0 mi ENE 4.6 mph - N/A   Partly Cloudy
8:53 PM 53.1 °F - 28.9 °F 40% 29.63 in 10.0 mi ENE 3.5 mph - N/A   Overcast
9:53 PM 52.0 °F - 30.0 °F 43% 29.62 in 10.0 mi ESE 3.5 mph - N/A   Overcast
10:53 PM 54.0 °F - 30.9 °F 41% 29.55 in 10.0 mi SE 4.6 mph - N/A   Overcast
11:53 PM 55.0 °F - 36.0 °F 49% 29.54 in 10.0 mi NE 3.5 mph - 0.00 in Rain Light Rain